7 * 24
多渠道服务支持
STARLINK-36500是美国于2026年1月4日发射的星链系列卫星,隶属于SpaceX公司的星链互联网星座项目。作为星链网络的组成部分,它将为全球尤其是偏远地区提供低延迟宽带互联网服务,进一步扩充星链星座的卫星规模,增强星座整体服务能力与覆盖范围,推动全球卫星互联网部署进程。
美国
(US)
| 数据来源 | 国际轨道数据 |
| 星历时间: | 2026-09-02T19:46:38+0800 1天前 查看轨道信息 |
| 半长轴: | 6861.178km |
| 偏心率: | 0.0001352 |
| 轨道倾角: | 43.004° |
| 近地点辐角 | 180.471° |
| 升交点赤经 | 47.195° |
| 平近点角 | 179.614° |
| 近地点: | 482.113km |
| 远地点: | 483.969km |
| 周期: | 94.267分钟 |
| 每日圈数: | 15.275829 |
| 事件ID | 空间交会对象 | 最接近时刻(TCA) | 交会距离 | 交会风险概率(CRP) | 交会风险指数(CRI) | 操作 |
|---|---|---|---|---|---|---|
| CDM_260905-093105-706806-732021 |
STARLINK-5844
(57068)
STARLINK-36500
(67320) | 2026-09-05T 09:31:01+0000 |
0.907 km
远距离 | 2.879477E-5 中风险 | 0.64 | |
| CDM_260905-110505-706806-732021 |
STARLINK-5844
(57068)
STARLINK-36500
(67320) | 2026-09-05T 11:05:10+0000 |
1.064 km
极远距离 | 1.661268E-5 中风险 | 0.59 | |
| CDM_260905-100506-315206-732021 |
STARLINK-32915
(63152)
STARLINK-36500
(67320) | 2026-09-05T 10:05:47+0000 |
1.332 km
极远距离 | 4.758599E-6 低风险 | 0.49 | |
| CDM_260905-075605-706806-732021 |
STARLINK-5844
(57068)
STARLINK-36500
(67320) | 2026-09-05T 07:56:52+0000 |
1.647 km
极远距离 | 3.841334E-6 低风险 | 0.47 | |
| CDM_260905-062205-706806-732021 |
STARLINK-5844
(57068)
STARLINK-36500
(67320) | 2026-09-05T 06:22:42+0000 |
2.596 km
极远距离 | 1.309455E-6 低风险 | 0.37 | |
| CDM_260905-113906-315206-732021 |
STARLINK-32915
(63152)
STARLINK-36500
(67320) | 2026-09-05T 11:39:57+0000 |
2.855 km
极远距离 | 7.747358E-7 极低风险 | 0.33 |